Location: Lanoux
(43.1180°N, 1.4255°E)
Time: 14:11:48
(UTC+00:00)

Meteor 2-10 - Pass Details

Date: 18 March 2026
Orbit: 736 x 866 km, 81.2° (Epoch: 18 April)

Event Time Altitude Azimuth Distance (km) Brightness Sun altitude
Rises 19:01:34 0° 206° (SSW) 3,290 7.5 -11.3°
Reaches altitude 10° 19:04:04 10° 212° (SSW) 2,343 6.8 -11.7°
Maximum altitude 19:09:06 45° 285° (WNW) 1,042 5.3 -12.6°
Drops below altitude 10° 19:14:02 10° 358° (N) 2,287 6.6 -13.5°
Sets 19:16:27 0° 5° (N) 3,202 7.3 -13.9°
